Location: Étavigny
(49.1201°N, 2.9800°E)
Time: 00:22:57
(UTC+00:00)

Cosmos 540 Rocket - Pass Details

Date: 28 January 2023
Orbit: 740 x 751 km, 74.1° (Epoch: 21 March)

Event Time Altitude Azimuth Distance (km) Brightness Sun altitude
Rises 19:29:54 0° 336° (NNW) 3,211 7.1 -28.0°
Reaches altitude 10° 19:32:17 10° 335° (NNW) 2,281 6.3 -28.4°
Enters shadow 19:36:14 53° 329° (NNW) 918 4.0 -29.1°
